Date String (YYYY-MM-DD hh:mm:ss) UTC,Instrument flags,Ambient pressure (hPa),Sample flow (lpm),Bypass flow (lpm),Sample temperature (°C),Ambient temperature (°C),ASC tube jacket temperature (°C),LED temperature (°C),Box temperature (°C),Sample RH (%),Span deviation,Mass concentration (μg/m³),Mass concentration (μg/m³),Mass concentration (μg/m³)
DateTimeUTC,F1_M11,P_M11,Q1_M11,Q2_M11,T1_M11,T2_M11,T3_M11,T4_M11,T5_M11,U1_M11,ZSPAN_M11,X0_M11,X2_M11,X1_M11
2022-03-15 08:00:00,,0830.8,5.00,0.00,25.5,24.5,00.0,34.6,27.2,07.7,0000.0,0004.02,0002.13,0001.50
2022-03-15 08:01:00,,0830.8,5.01,0.00,25.5,24.5,00.0,34.6,27.2,07.9,0000.0,0004.05,0002.16,0001.51
2022-03-15 08:02:00,,0830.8,4.98,0.00,25.4,24.5,00.0,34.5,27.2,08.0,0000.0,0003.76,0002.13,0001.51
2022-03-15 08:03:00,,0830.7,5.01,0.00,25.4,24.5,00.0,34.5,27.1,08.1,0000.0,0003.73,0002.12,0001.50
2022-03-15 08:04:00,,0830.7,5.01,0.00,25.4,24.5,00.0,34.5,27.1,08.1,0000.0,0004.36,0002.10,0001.50
2022-03-15 08:05:00,,0830.7,4.99,0.00,25.3,24.4,00.0,34.5,27.1,08.1,0000.0,0004.49,0002.09,0001.51
2022-03-15 08:06:00,,0830.7,5.01,0.00,25.3,24.4,00.0,34.5,27.0,08.2,0000.0,0004.60,0002.15,0001.51
2022-03-15 08:07:00,,0830.7,5.00,0.00,25.3,24.4,00.0,34.4,27.0,08.2,0000.0,0004.62,0002.19,0001.51
2022-03-15 08:08:00,,0830.8,5.00,0.00,25.2,24.3,00.0,34.4,26.9,08.3,0000.0,0004.77,0002.19,0001.51
2022-03-15 08:09:00,,0830.8,5.00,0.00,25.2,24.3,00.0,34.4,26.9,08.3,0000.0,0004.89,0002.21,0001.51
2022-03-15 08:10:00,,0830.8,4.99,0.00,25.2,24.2,00.0,34.4,26.8,08.2,0000.0,0004.75,0002.25,0001.51
2022-03-15 08:11:00,,0830.9,5.01,0.00,25.1,24.1,00.0,34.3,26.7,08.2,0000.0,0004.86,0002.31,0001.52
2022-03-15 08:12:00,,0830.8,5.00,0.00,25.1,24.1,00.0,34.3,26.7,08.4,0000.0,0004.74,0002.27,0001.51
2022-03-15 08:13:00,,0830.8,5.00,0.00,25.0,24.0,00.0,34.3,26.6,08.4,0000.0,0004.84,0002.30,0001.50
2022-03-15 08:14:00,,0830.8,5.01,0.00,25.0,24.0,00.0,34.2,26.6,08.4,0000.0,0004.83,0002.29,0001.51
2022-03-15 08:15:00,,0830.8,4.98,0.00,25.0,24.0,00.0,34.2,26.6,08.3,0000.0,0004.53,0002.32,0001.51
2022-03-15 08:16:00,,0830.8,5.01,0.00,24.9,23.9,00.0,34.2,26.6,08.2,0000.0,0004.27,0002.30,0001.51
2022-03-15 08:17:00,,0830.8,5.00,0.00,24.9,23.9,00.0,34.2,26.6,08.1,0000.0,0004.14,0002.21,0001.50
2022-03-15 08:18:00,,0830.7,5.01,0.00,24.9,23.9,00.0,34.1,26.5,08.1,0000.0,0004.04,0002.16,0001.50
2022-03-15 08:19:00,,0830.7,4.99,0.00,24.8,23.9,00.0,34.1,26.5,08.1,0000.0,0003.91,0002.18,0001.50
2022-03-15 08:20:00,,0830.8,5.01,0.00,24.8,23.9,00.0,34.1,26.5,08.3,0000.0,0003.80,0002.13,0001.49
2022-03-15 08:21:00,,0830.7,4.98,0.00,24.8,23.9,00.0,34.0,26.5,08.4,0000.0,0004.25,0002.10,0001.49
2022-03-15 08:22:00,,0830.7,5.01,0.00,24.8,23.8,00.0,34.0,26.4,08.5,0000.0,0004.49,0002.09,0001.51
2022-03-15 08:23:00,,0830.8,5.00,0.00,24.7,23.8,00.0,34.0,26.3,08.5,0000.0,0004.78,0002.18,0001.54
2022-03-15 08:24:00,,0830.7,5.00,0.00,24.7,23.7,00.0,33.9,26.3,08.6,0000.0,0004.97,0002.26,0001.59
2022-03-15 08:25:00,,0830.7,5.01,0.00,24.7,23.7,00.0,33.9,26.3,08.6,0000.0,0005.33,0002.36,0001.62
2022-03-15 08:26:00,,0830.7,4.99,0.00,24.6,23.7,00.0,33.9,26.3,08.6,0000.0,0005.22,0002.43,0001.67
2022-03-15 08:27:00,,0830.7,5.01,0.00,24.6,23.7,00.0,33.9,26.3,08.6,0000.0,0005.33,0002.49,0001.70
2022-03-15 08:28:00,,0830.7,4.99,0.00,24.6,23.7,00.0,33.8,26.3,08.6,0000.0,0005.63,0002.58,0001.74
2022-03-15 08:29:00,,0830.6,5.01,0.00,24.6,23.7,00.0,33.8,26.3,08.5,0000.0,0005.72,0002.63,0001.77
2022-03-15 08:30:00,,0830.7,4.99,0.00,24.6,23.7,00.0,33.8,26.3,08.5,0000.0,0005.80,0002.63,0001.79
2022-03-15 08:31:00,,0830.7,5.01,0.00,24.6,23.7,00.0,33.8,26.3,08.5,0000.0,0006.01,0002.73,0001.82
2022-03-15 08:32:00,,0830.7,5.01,0.00,24.5,23.6,00.0,33.7,26.2,08.5,0000.0,0005.57,0002.74,0001.83
2022-03-15 08:33:00,,0830.7,4.98,0.00,24.5,23.6,00.0,33.7,26.2,08.5,0000.0,0005.02,0002.66,0001.81
2022-03-15 08:34:00,,0830.7,5.01,0.00,24.5,23.6,00.0,33.7,26.2,08.5,0000.0,0004.70,0002.58,0001.78
2022-03-15 08:35:00,,0830.7,5.01,0.00,24.4,23.5,00.0,33.7,26.1,08.6,0000.0,0004.69,0002.59,0001.77
2022-03-15 08:36:00,,0830.6,5.00,0.00,24.4,23.5,00.0,33.6,26.1,08.6,0000.0,0004.38,0002.52,0001.75
2022-03-15 08:37:00,,0830.6,5.01,0.00,24.4,23.5,00.0,33.6,26.1,08.6,0000.0,0004.24,0002.46,0001.73
2022-03-15 08:38:00,,0830.6,5.00,0.00,24.4,23.5,00.0,33.6,26.1,08.6,0000.0,0004.68,0002.45,0001.72
2022-03-15 08:39:00,,0830.6,5.01,0.00,24.3,23.4,00.0,33.6,26.0,08.6,0000.0,0005.64,0002.41,0001.71
2022-03-15 08:40:00,,0830.6,4.99,0.00,24.3,23.4,00.0,33.5,26.0,08.6,0000.0,0005.68,0002.40,0001.70
2022-03-15 08:41:00,,0830.6,5.01,0.00,24.3,23.4,00.0,33.5,26.0,08.6,0000.0,0005.61,0002.39,0001.71
2022-03-15 08:42:00,,0830.5,4.99,0.00,24.3,23.4,00.0,33.5,25.9,08.6,0000.0,0005.39,0002.33,0001.71
2022-03-15 08:43:00,,0830.6,5.00,0.00,24.2,23.4,00.0,33.5,25.9,08.7,0000.0,0005.48,0002.38,0001.72
2022-03-15 08:44:00,,0830.6,4.99,0.00,24.2,23.4,00.0,33.4,25.9,08.7,0000.0,0005.98,0002.54,0001.75
2022-03-15 08:45:00,,0830.6,5.00,0.00,24.2,23.4,00.0,33.4,26.0,08.7,0000.0,0006.39,0002.58,0001.78
2022-03-15 08:46:00,,0830.5,5.01,0.00,24.2,23.4,00.0,33.4,26.0,08.6,0000.0,0006.91,0002.58,0001.80
2022-03-15 08:47:00,,0830.6,4.99,0.00,24.2,23.4,00.0,33.4,25.9,08.6,0000.0,0007.80,0002.67,0001.82
2022-03-15 08:48:00,,0830.5,4.98,0.00,24.2,23.4,00.0,33.4,25.9,08.7,0000.0,0007.84,0002.67,0001.83
2022-03-15 08:49:00,,0830.5,5.01,0.00,24.2,23.4,00.0,33.4,25.9,08.6,0000.0,0007.43,0002.68,0001.84
2022-03-15 08:50:00,,0830.5,5.01,0.00,24.2,23.3,00.0,33.3,25.9,08.7,0000.0,0006.60,0002.70,0001.85
2022-03-15 08:51:00,,0830.5,4.99,0.00,24.1,23.3,00.0,33.3,25.8,08.7,0000.0,0007.02,0002.76,0001.86
2022-03-15 08:52:00,,0830.5,5.01,0.00,24.1,23.3,00.0,33.3,25.7,08.6,0000.0,0007.66,0002.83,0001.87
2022-03-15 08:53:00,,0830.5,4.99,0.00,24.1,23.2,00.0,33.3,25.7,08.6,0000.0,0008.61,0002.90,0001.88
2022-03-15 08:54:00,,0830.5,5.01,0.00,24.1,23.2,00.0,33.3,25.7,08.6,0000.0,0009.22,0002.88,0001.88
2022-03-15 08:55:00,,0830.5,5.01,0.00,24.1,23.2,00.0,33.2,25.7,08.6,0000.0,0009.42,0002.80,0001.88
2022-03-15 08:56:00,,0830.5,4.98,0.00,24.0,23.2,00.0,33.2,25.7,08.7,0000.0,0009.35,0002.82,0001.87
2022-03-15 08:57:00,,0830.5,5.01,0.00,24.0,23.2,00.0,33.2,25.7,08.7,0000.0,0009.01,0002.79,0001.86
2022-03-15 08:58:00,,0830.5,4.99,0.00,24.0,23.2,00.0,33.2,25.7,08.7,0000.0,0008.42,0002.77,0001.87
2022-03-15 08:59:00,,0830.5,5.01,0.00,24.0,23.2,00.0,33.2,25.7,08.7,0000.0,0008.54,0002.80,0001.87
